Location: Sydney
(46.1500°N, 60.1670°W)
Time: 21:54:30
(UTC-03:00)

Iridium 90 - Visible Passes

Search period start: 25 June 2016 00:00
Search period end: 05 July 2016 00:00
Orbit: 747 x 750 km, 86.4° (Epoch: 25 June)

Date Brightness Start Highest point End Pass type
(mag) Time Alt. Az. Time Alt. Az. Time Alt. Az.
25 Jun 8.0 02:13:46 10° NE 02:16:37 15° ENE 02:19:26 10° ESE visible
25 Jun 5.4 03:52:15 10° N 03:57:20 74° W 04:02:23 10° S visible
26 Jun 6.2 03:10:16 10° N 03:15:14 52° E 03:20:10 10° SSE visible
27 Jun 7.4 02:28:44 10° NNE 02:32:55 25° ENE 02:37:04 10° SE visible
27 Jun 6.0 04:08:26 10° NNW 04:13:12 42° W 04:17:56 10° SSW visible
28 Jun 8.1 01:48:20 10° NE 01:50:22 12° ENE 01:52:23 10° E visible
28 Jun 5.4 03:26:09 10° N 03:31:15 89° W 03:36:09 11° S visible
29 Jun 6.5 02:44:16 10° N 02:49:06 43° E 02:53:52 10° SSE visible
29 Jun 6.7 04:24:54 10° NNW 04:28:56 24° W 04:32:58 10° SW visible
30 Jun 7.5 02:02:54 10° NNE 02:06:43 21° ENE 02:10:31 10° ESE visible
30 Jun 5.8 03:42:14 10° NNW 03:47:08 51° W 03:51:25 13° SSW visible
01 Jul 5.6 03:00:03 10° N 03:05:09 76° E 03:09:10 16° S visible
02 Jul 6.7 02:18:16 10° NNE 02:22:56 35° E 02:26:56 13° SE visible
02 Jul 6.5 03:58:35 10° NNW 04:02:56 29° W 04:06:46 12° SW visible
03 Jul 7.7 01:37:07 10° NNE 01:40:30 18° ENE 01:43:51 10° ESE visible
03 Jul 5.5 03:16:04 10° N 03:21:04 62° W 03:24:33 20° SSW visible
04 Jul 5.8 02:33:59 10° N 02:39:02 62° E 02:42:21 21° SSE visible
04 Jul 7.2 04:15:21 10° NW 04:18:35 17° WNW 04:21:49 10° WSW visible
